Location: South Cushing
(43.9686°N, 69.2945°W)
Time: 07:47:56
(UTC-04:00)

Tiangong 2 - Visible Passes

Search period start: 19 July 2018 00:00
Search period end: 29 July 2018 00:00
Orbit: 386 x 394 km, 42.8° (Epoch: 19 July)

Date Brightness Start Highest point End Pass type
(mag) Time Alt. Az. Time Alt. Az. Time Alt. Az.
19 Jul 1.1 21:00:20 10° W 21:03:30 67° S 21:06:41 10° ESE visible
19 Jul 2.9 22:37:21 10° W 22:39:01 22° WSW 22:39:01 22° WSW visible
20 Jul 1.8 21:39:32 10° W 21:42:32 39° SSW 21:43:42 27° SSE visible
21 Jul 1.4 20:41:47 10° W 20:44:55 53° SSW 20:48:01 10° ESE visible
21 Jul 3.2 22:19:12 10° WSW 22:20:44 16° SW 22:20:44 16° SW visible
22 Jul 2.5 21:21:07 10° W 21:23:50 26° SSW 21:25:28 17° SSE visible
24 Jul 3.3 21:02:59 10° WSW 21:05:02 16° SSW 21:07:04 10° S visible
